Location: Wayah Bald
(35.1806°N, 83.5603°W)
Time: 07:29:47
(UTC-04:00)

Meteor 1-27 Rocket - Visible Passes

Search period start: 22 May 2015 00:00
Search period end: 01 June 2015 00:00
Orbit: 831 x 910 km, 81.3° (Epoch: 22 May)

Date Brightness Start Highest point End Pass type
(mag) Time Alt. Az. Time Alt. Az. Time Alt. Az.
22 May 6.1 05:33:55 10° NNE 05:38:58 29° ENE 05:44:05 10° SE visible
23 May 6.0 05:27:45 10° NNE 05:32:52 30° ENE 05:38:01 10° SE visible
24 May 5.9 05:21:36 10° NNE 05:26:45 31° ENE 05:31:56 10° SE visible
25 May 5.8 05:15:26 10° NNE 05:20:38 32° ENE 05:25:52 10° SE visible
26 May 5.7 05:09:16 10° NNE 05:14:31 33° ENE 05:19:48 10° SE visible
27 May 5.6 05:03:06 10° N 05:08:25 34° ENE 05:13:43 10° SE visible
28 May 5.5 04:56:56 10° N 05:02:18 35° ENE 05:07:38 10° SE visible
29 May 5.4 04:50:47 10° N 04:56:11 36° ENE 05:01:32 10° SE visible
30 May 5.3 04:44:38 10° N 04:50:04 37° ENE 04:55:27 10° SE visible
31 May 5.2 04:38:29 10° N 04:43:57 39° ENE 04:49:22 10° SE visible
